Regional Weather Roundup
Issued by NWS New Orleans/Baton Rouge, LA

Home | Current Version | Previous Version | Text Only | Print | Product List | Glossary On
Versions: 1 2 3 4 5 6 7 8 9 10 11 12 13 14 15 16 17 18 19 20 21 22 23 24 25 26 27 28 29 30 31 32 33 34 35 36 37 38 39 40 41 42 43 44 45 46 47 48 49 50
884
ASUS44 KLIX 171210
RWRLIX
NEW ORLEANS REGIONAL WEATHER ROUNDUP
NATIONAL WEATHER SERVICE NEW ORLEANS LA
700 AM CDT WED SEP 17 2014

NOTE: "FAIR" INDICATES FEW OR NO CLOUDS BELOW 12,000 FEET WITH NO
      SIGNIFICANT WEATHER AND/OR OBSTRUCTIONS TO VISIBILITY.
      SKY/WX - SKY CONDITION AND SIGNIFICANT WEATHER.
      TMP - AIR TEMPERATURE.     DP    - DEWPOINT TEMPERATURE.
      RH  - RELATIVE HUMIDITY.   PRES  - PRESSURE.
      HI  - HEAT INDEX.          WCI   - WIND CHILL INDEX.

*  THESE STATIONS ARE NOT NWS OR FAA STATIONS AND ARE NOT UNDER
   NWS QUALITY CONTROL.

LAZ038-040-048-061>063-065>067-069-171300-
SOUTHEAST LOUISIANA

CITY           SKY/WX    TMP DP  RH WIND       PRES   REMARKS
N.O. AUDUBON     N/A     76  73  92 MISG        N/A
6HR MIN TEMP:  75; 6HR MAX TEMP:  78;

N.O. INTL ARPT MOCLDY    74  71  91 CALM      29.96S
6HR MIN TEMP:  73; 6HR MAX TEMP:  77;

N.O. LAKEFRONT CLEAR     77  71  82 N5        29.96S
6HR MIN TEMP:  76; 6HR MAX TEMP:  80;

N.O. DOWNTOWN*   N/A     77  70  78 CALM      29.96S
6HR MIN TEMP:  75; 6HR MAX TEMP:  79;

SLIDELL        PTCLDY    71  69  93 N3        29.96S
6HR MIN TEMP:  71; 6HR MAX TEMP:  74;

BATON ROUGE    PTCLDY    71  70  96 CALM      29.97S FOG
6HR MIN TEMP:  71; 6HR MAX TEMP:  74; 6HR PCP: TRACE;

BOOTHVILLE     PTCLDY    78  74  87 CALM      29.97R
6HR MIN TEMP:  76; 6HR MAX TEMP:  78; 6HR PCP:  0.03;

BELLE CHASSE   MOCLDY    74  70  87 CALM      29.95S FOG
6HR MIN TEMP:  73; 6HR MAX TEMP:  76;

BOGALUSA*      FOG       73  69  89 CALM      29.98S VSB 3/4
6HR MIN TEMP:  72; 6HR MAX TEMP:  74;

GALLIANO*      NOT AVBL
NEW ROADS*     CLOUDY    72  71  98 CALM      29.97S FOG
6HR MIN TEMP:  70; 6HR MAX TEMP:  73; 6HR PCP:  0.01;

GONZALES*      FOG       70  70 100 CALM      29.96S VSB<1/4
6HR MIN TEMP:  70; 6HR MAX TEMP:  73; 6HR PCP:  0.01;

HAMMOND*       CLOUDY    72  70  94 CALM      29.98F FOG
HOUMA*         PTCLDY    73  70  88 NW3       29.97R
PORT FOURCHON* NOT AVBL

$$

MSZ070-080>082-171300-
SOUTHERN MISSISSIPPI

CITY           SKY/WX    TMP DP  RH WIND       PRES   REMARKS
MCCOMB         MOCLDY    71  69  93 CALM      29.98S FOG
6HR MIN TEMP:  70; 6HR MAX TEMP:  73;

GULFPORT       PTCLDY    72  70  93 CALM      29.96R
6HR MIN TEMP:  72; 6HR MAX TEMP:  74;

BILOXI         MOCLDY    72  71  95 NE5       29.96R
6HR MIN TEMP:  72; 6HR MAX TEMP:  74;

PASCAGOULA     CLOUDY    71  70  96 CALM      29.96S
6HR MIN TEMP:  71; 6HR MAX TEMP:  73;

STENNIS ARPT*  CLEAR     72  68  88 CALM      29.96  FOG

$$

COASTAL OBSERVATIONS
LAKE AND NEARSHORE STATIONS

STATION/POSITION TIME  TEMP    WIND        PRES    WAVE
                       AIR SEA DIR/SP/G            HT/PER
                 (UTC) (F)     (DEG/KT/KT) (MB)    (FT/S)
PASCAGOULA       1200   73     350/  4/  5 1014.0
WAVELAND YACHT   1200   75     360/  5/  6 1013.8
GRAND ISLE       1200   79 86   30/  5/  6 1015.0
SOUTHWEST PASS   1200   78 90  310/  5/  8 1014.9
NEW CANAL        1200   79 81   10/  5/  7 1014.8
SHELL BEACH      1200   78 80  190/  3/  3 1014.2

OFFSHORE STATIONS

STATION/POSITION TIME  TEMP    WIND        PRES    WAVE
                       AIR SEA DIR/SP/G            HT/PER
                 (UTC) (F)     (DEG/KT/KT) (MB)    (FT/S)
64 S DAUPHIN ISL 1112   81 85   20/  6/  6 1014.8    2/ 5

$$




USA.gov is the U.S. government's official web portal to all federal, state and local government web resources and services.